Time,TemperatureF,DewpointF,PressureIn,WindDirection,WindDirectionDegrees,WindSpeedMPH,WindSpeedGustMPH,Humidity,HourlyPrecipIn,Conditions,Clouds,dailyrainin,SoftwareType,DateUTC
2013-07-10 09:10:00,69.1,66.4,29.97,ESE,119,0.0,8.0,91,0.00,,,0.01,Wunderground v.1.15,2013-07-10 13:10:00,
2013-07-10 09:15:00,69.2,66.5,29.97,ESE,119,0.0,8.0,91,0.00,,,0.01,Wunderground v.1.15,2013-07-10 13:15:00,
2013-07-10 09:20:00,69.3,66.6,29.96,ESE,119,0.0,0.0,91,0.00,,,0.01,Wunderground v.1.15,2013-07-10 13:20:00,
2013-07-10 09:25:00,69.4,66.7,29.96,ESE,119,0.0,0.0,91,0.00,,,0.01,Wunderground v.1.15,2013-07-10 13:25:00,
2013-07-10 09:30:00,69.5,66.8,29.96,ESE,119,0.0,0.0,91,0.00,,,0.01,Wunderground v.1.15,2013-07-10 13:30:00,
2013-07-10 09:40:00,69.7,67.0,29.95,ESE,119,0.0,0.0,91,0.00,,,0.01,Wunderground v.1.15,2013-07-10 13:40:00,
2013-07-10 09:45:00,69.8,67.1,29.95,ESE,119,0.0,0.0,91,0.00,,,0.01,Wunderground v.1.15,2013-07-10 13:45:00,
2013-07-10 09:55:00,70.2,67.4,29.96,ESE,119,0.0,0.0,91,0.00,,,0.01,Wunderground v.1.15,2013-07-10 13:55:00,
2013-07-10 10:05:00,70.4,67.6,29.96,ESE,119,0.0,0.0,91,0.00,,,0.01,Wunderground v.1.15,2013-07-10 14:05:00,
2013-07-10 10:15:00,70.7,67.9,29.95,ESE,119,0.0,1.0,91,0.00,,,0.01,Wunderground v.1.15,2013-07-10 14:15:00,
2013-07-10 10:25:00,71.3,68.5,29.94,ESE,119,0.0,0.0,91,0.00,,,0.01,Wunderground v.1.15,2013-07-10 14:25:00,
2013-07-10 10:35:00,72.1,69.3,29.94,ESE,119,1.0,1.0,91,0.00,,,0.01,Wunderground v.1.15,2013-07-10 14:35:00,
2013-07-10 10:45:00,72.7,69.9,29.94,ESE,119,1.0,2.0,91,0.00,,,0.01,Wunderground v.1.15,2013-07-10 14:45:00,
2013-07-10 10:50:00,73.1,70.3,29.94,ESE,119,1.0,4.0,91,0.00,,,0.01,Wunderground v.1.15,2013-07-10 14:50:00,
2013-07-10 11:00:00,74.3,71.5,29.93,ESE,119,1.0,1.0,91,0.00,,,0.01,Wunderground v.1.15,2013-07-10 15:00:00,
2013-07-10 11:10:00,75.6,72.1,29.93,SE,128,1.0,1.0,89,0.00,,,0.01,Wunderground v.1.15,2013-07-10 15:10:00,
2013-07-10 11:20:00,77.2,73.4,29.93,SE,128,1.0,1.0,88,0.00,,,0.01,Wunderground v.1.15,2013-07-10 15:20:00,
2013-07-10 11:30:00,78.5,73.6,29.93,SE,128,0.0,0.0,85,0.00,,,0.01,Wunderground v.1.15,2013-07-10 15:30:00,
2013-07-10 11:40:00,80.0,73.6,29.93,West,267,0.0,0.0,81,0.00,,,0.01,Wunderground v.1.15,2013-07-10 15:40:00,
2013-07-10 11:45:00,80.5,73.4,29.92,West,274,1.0,1.0,79,0.00,,,0.01,Wunderground v.1.15,2013-07-10 15:45:00,
2013-07-10 11:50:00,80.9,73.4,29.92,West,261,1.0,1.0,78,0.00,,,0.01,Wunderground v.1.15,2013-07-10 15:50:00,
2013-07-10 12:00:00,81.9,73.2,29.92,SE,140,1.0,1.0,75,0.00,,,0.01,Wunderground v.1.15,2013-07-10 16:00:00,
2013-07-10 12:05:00,82.1,73.4,29.92,NW,306,1.0,5.0,75,0.00,,,0.01,Wunderground v.1.15,2013-07-10 16:05:00,
2013-07-10 12:15:00,82.7,73.2,29.92,WNW,286,1.0,2.0,73,0.00,,,0.01,Wunderground v.1.15,2013-07-10 16:15:00,
2013-07-10 12:25:00,83.5,73.5,29.91,WNW,302,1.0,5.0,72,0.00,,,0.01,Wunderground v.1.15,2013-07-10 16:25:00,
2013-07-10 12:30:00,83.7,73.7,29.91,SSE,168,2.0,2.0,72,0.00,,,0.01,Wunderground v.1.15,2013-07-10 16:30:00,
2013-07-10 12:40:00,84.5,73.6,29.91,SE,132,2.0,2.0,70,0.00,,,0.01,Wunderground v.1.15,2013-07-10 16:40:00,
2013-07-10 12:45:00,84.5,73.2,29.91,WSW,257,2.0,5.0,69,0.00,,,0.01,Wunderground v.1.15,2013-07-10 16:45:00,
2013-07-10 12:50:00,84.5,73.6,29.90,SE,143,1.0,6.0,70,0.00,,,0.01,Wunderground v.1.15,2013-07-10 16:50:00,
2013-07-10 13:00:00,84.3,73.4,29.90,East,96,2.0,2.0,70,0.00,,,0.01,Wunderground v.1.15,2013-07-10 17:00:00,
2013-07-10 13:05:00,84.2,72.9,29.89,WNW,298,3.0,3.0,69,0.00,,,0.01,Wunderground v.1.15,2013-07-10 17:05:00,
2013-07-10 13:10:00,84.3,73.4,29.89,NW,322,3.0,6.0,70,0.00,,,0.01,Wunderground v.1.15,2013-07-10 17:10:00,
2013-07-10 13:20:00,84.3,73.4,29.89,WNW,284,4.0,4.0,70,0.00,,,0.01,Wunderground v.1.15,2013-07-10 17:20:00,
2013-07-10 13:30:00,84.1,73.3,29.87,West,271,4.0,7.0,70,0.00,,,0.01,Wunderground v.1.15,2013-07-10 17:30:00,
2013-07-10 13:40:00,84.4,73.1,29.86,West,271,4.0,5.0,69,0.00,,,0.01,Wunderground v.1.15,2013-07-10 17:40:00,
2013-07-10 13:50:00,85.1,74.2,29.86,WSW,257,3.0,3.0,70,0.00,,,0.01,Wunderground v.1.15,2013-07-10 17:50:00,
2013-07-10 13:55:00,85.2,73.9,29.86,SE,144,4.0,4.0,69,0.00,,,0.01,Wunderground v.1.15,2013-07-10 17:55:00,
2013-07-10 14:00:00,84.8,73.5,29.85,SSE,148,5.0,6.0,69,0.00,,,0.01,Wunderground v.1.15,2013-07-10 18:00:00,
2013-07-10 14:05:00,84.5,74.1,29.85,ENE,69,4.0,6.0,71,0.00,,,0.01,Wunderground v.1.15,2013-07-10 18:05:00,
2013-07-10 14:15:00,84.5,73.6,29.85,SE,132,5.0,5.0,70,0.00,,,0.01,Wunderground v.1.15,2013-07-10 18:15:00,
2013-07-10 14:25:00,84.6,74.2,29.85,NW,306,4.0,6.0,71,0.00,,,0.01,Wunderground v.1.15,2013-07-10 18:25:00,
2013-07-10 14:30:00,84.6,73.7,29.85,West,261,5.0,5.0,70,0.00,,,0.01,Wunderground v.1.15,2013-07-10 18:30:00,
2013-07-10 14:35:00,84.4,74.0,29.85,WSW,255,5.0,5.0,71,0.00,,,0.01,Wunderground v.1.15,2013-07-10 18:35:00,
2013-07-10 14:40:00,84.4,74.0,29.85,ESE,108,5.0,6.0,71,0.00,,,0.01,Wunderground v.1.15,2013-07-10 18:40:00,
2013-07-10 14:50:00,84.7,73.8,29.84,NNW,328,5.0,5.0,70,0.00,,,0.01,Wunderground v.1.15,2013-07-10 18:50:00,
2013-07-10 14:55:00,85.0,74.1,29.84,West,276,6.0,9.0,70,0.00,,,0.01,Wunderground v.1.15,2013-07-10 18:55:00,
2013-07-10 15:00:00,85.2,74.3,29.84,SSW,194,6.0,6.0,70,0.00,,,0.01,Wunderground v.1.15,2013-07-10 19:00:00,
2013-07-10 15:05:00,85.3,74.4,29.84,South,175,6.0,6.0,70,0.00,,,0.01,Wunderground v.1.15,2013-07-10 19:05:00,
2013-07-10 15:10:00,85.1,74.2,29.84,ESE,119,7.0,7.0,70,0.00,,,0.01,Wunderground v.1.15,2013-07-10 19:10:00,